Le Mars, IA

10:45 AM CST on February 13, 2016 (GMT -0600)
Le Mars Municipal

Weather History for KLRJ - March, 2013

Change the Weather History Date:

Friday, March 29, 2013

  Actual Average (KSUX) Record (KSUX)
Temperature  
Mean Temperature 45 °F 42 °F  
Max Temperature 64 °F 54 °F 89 °F (1986)
Min Temperature 26 °F 30 °F 5 °F (1969)
Degree Days  
Heating Degree Days 20 23  
Month to date heating degree days 840  
Since 1 July heating degree days 6134  
Cooling Degree Days 0 0  
Month to date cooling degree days 0  
Year to date cooling degree days 0  
Moisture  
Dew Point 33 °F    
Average Humidity 62    
Maximum Humidity 100    
Minimum Humidity 30    
Precipitation  
Precipitation 0.00 in 0.09 in 0.95 in (1976)
Month to date precipitation 1.82  
Year to date precipitation 3.11  
Snow  
Snow 0.00 in 0.20 in 5.00 in (1954)
Month to date snowfall 6.2  
Since 1 July snowfall 32.7  
Snow Depth -    
Sea Level Pressure  
Sea Level Pressure 30.13 in    
Wind  
Wind Speed 5 mph (South)    
Max Wind Speed 18 mph    
Max Gust Speed 23 mph    
Visibility 9 miles    
Events      
T = Trace of Precipitation, MM = Missing Value Source: NWS Daily Summary

Daily Weather History Graph

Daily Weather History Graph

Search for Another Location

Airport or City:

Trip Planner

Search our weather history database for the weather conditions in past years. The results will help you decide how hot, cold, wet, or windy it might be!

Date:

Astronomy

Mar. 29, 2013 Rise Set
Actual Time 7:11 AM CDT 7:47 PM CDT
Civil Twilight 6:43 AM CDT 8:16 PM CDT
Nautical Twilight 6:09 AM CDT 8:49 PM CDT
Astronomical Twilight 5:35 AM CDT 9:24 PM CDT
Moon 10:54 PM CDT (3/29) 8:17 AM CDT (3/29)
Length of Visible Light 13h 33m
Length of Day
12h 36m
Waning Gibbous, 93% of the Moon is Illuminated
Mar 29
Waning Gibbous
Apr 2
Last Quarter
Apr 10
New
Apr 18
First Quarter
Apr 25
Full

Hourly Weather History & Observations

Time (CDT) Temp. Windchill Dew Point Humidity Pressure Visibility Wind Dir Wind Speed Gust Speed Precip Events Conditions
12:15 AM 39.2 °F 35.9 °F 32.0 °F 75% 30.21 in 10.0 mi SE 4.6 mph - N/A   Mostly Cloudy
12:35 AM 39.2 °F - 32.0 °F 75% 30.21 in 10.0 mi Calm Calm - N/A   Mostly Cloudy
12:55 AM 37.4 °F - 30.2 °F 75% 30.21 in 10.0 mi Calm Calm - N/A   Mostly Cloudy
1:15 AM 37.4 °F - 30.2 °F 75% 30.21 in 10.0 mi Calm Calm - N/A   Scattered Clouds
1:35 AM 35.6 °F - 30.2 °F 81% 30.21 in 10.0 mi Calm Calm - N/A   Scattered Clouds
1:55 AM 37.4 °F - 30.2 °F 75% 30.21 in 10.0 mi Calm Calm - N/A   Scattered Clouds
2:15 AM 37.4 °F - 30.2 °F 75% 30.21 in 10.0 mi Calm Calm - N/A   Clear
2:35 AM 37.4 °F - 30.2 °F 75% 30.20 in 10.0 mi Calm Calm - N/A   Clear
2:55 AM 35.6 °F - 30.2 °F 81% 30.20 in 10.0 mi Calm Calm - N/A   Clear
3:15 AM 33.8 °F - 28.4 °F 81% 30.20 in 10.0 mi Calm Calm - N/A   Clear
3:35 AM 33.8 °F - 28.4 °F 81% 30.20 in 10.0 mi Calm Calm - N/A   Clear
3:55 AM 33.8 °F - 30.2 °F 87% 30.19 in 10.0 mi Calm Calm - N/A   Clear
4:15 AM 33.8 °F - 28.4 °F 81% 30.18 in 10.0 mi Calm Calm - N/A   Clear
4:35 AM 30.2 °F - 28.4 °F 93% 30.18 in 5.0 mi Calm Calm - N/A   Clear
4:55 AM 30.2 °F - 28.4 °F 93% 30.18 in 7.0 mi Calm Calm - N/A   Scattered Clouds
5:15 AM 30.2 °F - 28.4 °F 93% 30.18 in 5.0 mi Calm Calm - N/A   Scattered Clouds
5:35 AM 28.4 °F - 26.6 °F 93% 30.19 in 3.0 mi Calm Calm - N/A   Scattered Clouds
5:55 AM 28.4 °F - 28.4 °F 100% 30.19 in 4.0 mi Calm Calm - N/A   Scattered Clouds
6:15 AM 28.4 °F - 28.4 °F 100% 30.18 in 4.0 mi Calm Calm - N/A   Clear
6:35 AM 26.6 °F - 26.6 °F 100% 30.19 in 2.5 mi Calm Calm - N/A   Clear
6:55 AM 28.4 °F - 28.4 °F 100% 30.19 in 4.0 mi Calm Calm - N/A   Clear
7:15 AM 28.4 °F - 26.6 °F 93% 30.19 in 4.0 mi Calm Calm - N/A   Clear
7:35 AM 28.4 °F - 26.6 °F 93% 30.20 in 5.0 mi Calm Calm - N/A   Clear
7:55 AM 28.4 °F - 26.6 °F 93% 30.20 in 4.0 mi Calm Calm - N/A   Clear
8:15 AM 30.2 °F - 28.4 °F 93% 30.20 in 3.0 mi Calm Calm - N/A   Clear
8:35 AM 33.8 °F - 32.0 °F 93% 30.20 in 5.0 mi Calm Calm - N/A   Clear
8:55 AM 37.4 °F 34.9 °F 33.8 °F 87% 30.20 in 10.0 mi South 3.5 mph - N/A   Clear
9:15 AM 39.2 °F 35.9 °F 33.8 °F 81% 30.20 in 10.0 mi South 4.6 mph - N/A   Clear
9:35 AM 42.8 °F 39.3 °F 33.8 °F 70% 30.21 in 10.0 mi SSE 5.8 mph - N/A   Clear
9:55 AM 44.6 °F 39.7 °F 35.6 °F 71% 30.21 in 10.0 mi South 9.2 mph - N/A   Clear
10:15 AM 46.4 °F 41.5 °F 35.6 °F 66% 30.20 in 10.0 mi South 10.4 mph - N/A   Clear
10:35 AM 48.2 °F - 35.6 °F 62% 30.20 in 10.0 mi SSW 12.7 mph - N/A   Clear
10:55 AM 50.0 °F - 37.4 °F 62% 30.20 in 10.0 mi South 10.4 mph - N/A   Clear
11:15 AM 51.8 °F - 37.4 °F 58% 30.20 in 10.0 mi SSW 13.8 mph - N/A   Clear
11:55 AM 53.6 °F - 37.4 °F 54% 30.19 in 10.0 mi South 15.0 mph - N/A   Clear
12:15 PM 55.4 °F - 37.4 °F 51% 30.18 in 10.0 mi SSW 17.3 mph 20.7 mph N/A   Clear
12:35 PM 55.4 °F - 37.4 °F 51% 30.18 in 10.0 mi South 18.4 mph - N/A   Clear
12:55 PM 57.2 °F - 37.4 °F 48% 30.17 in 10.0 mi South 16.1 mph 23.0 mph N/A   Clear
1:15 PM 57.2 °F - 35.6 °F 44% 30.16 in 10.0 mi South 16.1 mph 23.0 mph N/A   Clear
1:35 PM 59.0 °F - 35.6 °F 42% 30.15 in 10.0 mi South 15.0 mph - N/A   Clear
1:55 PM 60.8 °F - 35.6 °F 39% 30.14 in 10.0 mi South 13.8 mph 20.7 mph N/A   Clear
2:15 PM 60.8 °F - 35.6 °F 39% 30.13 in 10.0 mi South 13.8 mph 20.7 mph N/A   Clear
2:35 PM 60.8 °F - 35.6 °F 39% 30.13 in 10.0 mi South 15.0 mph 20.7 mph N/A   Clear
2:55 PM 62.6 °F - 33.8 °F 34% 30.12 in 10.0 mi South 16.1 mph 23.0 mph N/A   Clear
3:15 PM 62.6 °F - 33.8 °F 34% 30.11 in 10.0 mi SSW 13.8 mph 18.4 mph N/A   Clear
3:35 PM 62.6 °F - 32.0 °F 32% 30.10 in 10.0 mi South 16.1 mph 19.6 mph N/A   Clear
3:55 PM 64.4 °F - 33.8 °F 32% 30.09 in 10.0 mi South 12.7 mph 20.7 mph N/A   Clear
4:15 PM 64.4 °F - 33.8 °F 32% 30.08 in 10.0 mi SSW 13.8 mph - N/A   Clear
4:35 PM 64.4 °F - 32.0 °F 30% 30.07 in 10.0 mi South 16.1 mph 21.9 mph N/A   Clear
4:55 PM 64.4 °F - 33.8 °F 32% 30.07 in 10.0 mi South 13.8 mph 18.4 mph N/A   Clear
5:15 PM 64.4 °F - 33.8 °F 32% 30.07 in 10.0 mi South 13.8 mph - N/A   Clear
5:35 PM 64.4 °F - 33.8 °F 32% 30.07 in 10.0 mi South 12.7 mph - N/A   Clear
5:55 PM 64.4 °F - 32.0 °F 30% 30.06 in 10.0 mi South 15.0 mph - N/A   Clear
6:15 PM 62.6 °F - 32.0 °F 32% 30.06 in 10.0 mi South 11.5 mph - N/A   Clear
6:35 PM 62.6 °F - 33.8 °F 34% 30.05 in 10.0 mi South 10.4 mph - N/A   Clear
6:55 PM 60.8 °F - 33.8 °F 36% 30.05 in 10.0 mi South 8.1 mph - N/A   Clear
7:15 PM 59.0 °F - 33.8 °F 39% 30.04 in 10.0 mi South 8.1 mph - N/A   Clear
7:35 PM 57.2 °F - 33.8 °F 41% 30.04 in 10.0 mi SSE 8.1 mph - N/A   Clear
7:55 PM 55.4 °F - 33.8 °F 44% 30.03 in 10.0 mi SE 8.1 mph - N/A   Clear
8:15 PM 53.6 °F - 35.6 °F 51% 30.02 in 10.0 mi SE 8.1 mph - N/A   Clear
8:35 PM 53.6 °F - 35.6 °F 51% 30.02 in 10.0 mi SE 9.2 mph - N/A   Clear
8:55 PM 53.6 °F - 35.6 °F 51% 30.02 in 10.0 mi SE 9.2 mph - N/A   Clear
9:15 PM 51.8 °F - 35.6 °F 54% 30.02 in 10.0 mi SE 8.1 mph - N/A   Clear
9:35 PM 51.8 °F - 35.6 °F 54% 30.02 in 10.0 mi SE 8.1 mph - N/A   Clear
9:55 PM 51.8 °F - 35.6 °F 54% 30.03 in 10.0 mi SSE 9.2 mph - N/A   Clear
10:15 PM 48.2 °F - 35.6 °F 62% 30.04 in 10.0 mi SW 6.9 mph - N/A   Scattered Clouds
10:35 PM 48.2 °F - 35.6 °F 62% 30.03 in 10.0 mi South 8.1 mph - N/A   Scattered Clouds
10:55 PM 48.2 °F - 33.8 °F 58% 30.03 in 10.0 mi SSW 6.9 mph - N/A   Clear
11:15 PM 48.2 °F - 33.8 °F 58% 30.02 in 10.0 mi WSW 4.6 mph - N/A   Clear
11:35 PM 51.8 °F - 33.8 °F 50% 30.02 in 10.0 mi South 8.1 mph - N/A   Clear
11:55 PM 51.8 °F - 33.8 °F 50% 30.02 in 10.0 mi SSW 8.1 mph - N/A   Clear